sat.trackr.live / text

‹ back to catalog

GEOSCAN 2 (RS92S2)

NORAD 64890 · 2025-155Q

PAYLOAD ACTIVE UNKNOWN

§ Identity

Operator
Country
CIS
Launch date
2025-07-25
Launch site
VOSTO
Launch vehicle
Mass (kg)
RCS (m²)

Purposes: comms

External: N2YO · Heavens-Above · Gunter

§ Orbital elements

Epoch: 2026-09-19T22:57:46.352736Z

Period
93.95 min
Inclination
97.4667°
Eccentricity
0.0006848
Mean motion
15.32782489 rev/d
Perigee alt
462.8 km
Apogee alt
472.2 km
Semi-major
6,845.7 km
B*
2.5976e-4
RAAN
232.4780°
Arg perigee
168.5691°
Mean anomaly
191.5708°
Rev number
9,529

§ Raw data

GEOSCAN 2 (RS92S2)1 64890U 25155Q   26262.95678649  .00008150  00000+0  25976-3 0  99922 64890  97.4667 232.4780 0006848 168.5691 191.5708 15.32782489 95291

JSON: /api/v1/satellites/64890 · /tle

For live sub-satellite position, see the globe view (requires WebGL).

§ Visibility from observer

Set your observer location to see the next 7 days of passes ≥ 10°. The values pass through the URL so the page stays shareable.

No JS? Fill the form by hand. The geolocation button needs JavaScript.

§ Radio — SatNOGS DB

ModeDescriptionDownlinkUplink
GFSK Mode U - GFSK9k6 - AX.25 Beacon and Ham Payload (Geoscan framing) 436.160 MHz

1 transmitter · refreshed weekly from db.satnogs.org